Location: Asheville, NC
(35.6000°N, 82.5500°W)
Time: 17:05:22
(UTC-05:00)

Vanguard 2 Rocket - Pass Details

Date: 09 February 2018
Orbit: 555 x 3327 km, 32.9° (Epoch: 17 February)

Event Time Altitude Azimuth Distance (km) Brightness Sun altitude
Rises 22:40:06 0° 191° (S) 5,591 - -55.0°
Reaches altitude 10° 22:44:39 10° 177° (S) 5,020 - -55.8°
Maximum altitude 22:55:34 23° 132° (SE) 4,784 - -57.7°
Drops below altitude 10° 23:08:51 10° 89° (E) 6,266 - -59.8°
Sets 23:15:26 0° 78° (ENE) 7,302 - -60.9°
